Home > Weather > Pembroke Pines > Past weeks

Flag for USA Past Weather in Pembroke Pines, Florida, USA — Yesterday and Last 2 Weeks

Now
86 °F

Sunny.


Feels Like: 94 °F
Forecast: 76 / 89 °F
Wind: 13 mph from Southeast

Location: North Perry Airport

Current Time: Jun 29, 2016 at 7:50:28 PM

Latest Report: Jun 29, 2016 at 6:53 PM


Visibility: 10 mi

Pressure: 29.98 "Hg

Humidity: 67%

Dew Point: 74 °F

Location of Pembroke PinesLocation

Past Weather in Pembroke Pines — Graph

°F

Pembroke Pines Temperature Yesterday

Maximum temperature yesterday: 90 °F (at 2:53 PM)
Minimum temperature yesterday: 77 °F (at 4:53 AM)
Average temperature yesterday: 83 °F

High & Low Weather Summary for the Past Weeks

 TemperatureHumidityPressure
High95 °F (Jun 18, 2:53 PM)96% (Jun 22, 4:53 AM)30.16 "Hg (Jun 22, 4:53 AM)
Low74 °F (Jun 21, 2:53 PM)41% (Jun 18, 4:53 PM)29.95 "Hg (Jun 17, 7:53 PM)
Average83 °F71%30.06 "Hg
* Reported Jun 14 6:53 PM — Jun 29 6:53 PM, Pembroke Pines, Weather by CustomWeather, © 2016

Note: Actual official high and low records may vary slightly from our data, if they occured in-between our weather recording intervals... More about our weather records

Advertising

Pembroke Pines Weather History for the Previous 24 Hours

Scroll right to see more
 ConditionsComfort  
Time TempWeatherWind HumidityBarometerVisibility
6:53 PM
Wed, Jun 29
86 °FSunny.13 mph67%29.98 "Hg10 mi
5:53 PM86 °FSunny.9 mph67%29.98 "Hg10 mi
4:53 PM84 °FSunny.5 mph72%29.98 "Hg10 mi
3:53 PM82 °FCloudy.6 mph77%29.99 "Hg10 mi
2:53 PM83 °FPartly sunny.9 mph68%30.00 "Hg10 mi
1:53 PM89 °FOvercast.12 mph59%30.00 "Hg10 mi
12:53 PM88 °FMostly cloudy.10 mph61%30.02 "Hg10 mi
11:53 AM88 °FBroken clouds.9 mph65%30.04 "Hg10 mi
10:53 AM88 °FPassing clouds.5 mph61%30.04 "Hg10 mi
9:53 AM86 °FBroken clouds.3 mph65%30.03 "Hg10 mi
8:53 AM85 °FSunny.3 mph70%30.02 "Hg10 mi
7:53 AM82 °FSunny.No wind79%30.02 "Hg10 mi
6:53 AM78 °FPassing clouds.No wind87%30.01 "Hg10 mi
5:53 AM78 °FClear.No wind87%30.00 "Hg10 mi
4:53 AM78 °FClear.No wind87%30.00 "Hg10 mi
3:53 AM79 °FClear.No wind84%30.00 "Hg10 mi
2:53 AM80 °FPassing clouds.5 mph79%30.01 "Hg10 mi
1:53 AM81 °FPassing clouds.3 mph77%30.00 "Hg10 mi
12:53 AM81 °FClear.3 mph77%30.01 "Hg10 mi
11:53 PM
Tue, Jun 28
82 °FClear.3 mph72%30.03 "Hg10 mi
10:53 PM83 °FClear.3 mph70%30.03 "Hg10 mi
9:53 PM83 °FClear.5 mph70%30.03 "Hg10 mi
8:53 PM83 °FSunny.7 mph70%30.00 "Hg10 mi
7:53 PM84 °FSunny.9 mph65%29.99 "Hg10 mi
Weather by CustomWeather, © 2016

See weather overviewHow to use our weather pages